Location: Campillo
(40.8621°N, 4.2488°W)
Time: 13:02:27
(UTC+00:00)

CZ-2C R/B - Pass Details

Date: 11 May 2021
Orbit: 640 x 704 km, 98.3° (Epoch: 14 June)

Event Time Altitude Azimuth Distance (km) Brightness Sun altitude
Rises 21:10:33 0° 12° (NNE) 2,972 7.5 -17.4°
Reaches altitude 10° 21:12:45 10° 12° (NNE) 2,065 6.7 -17.7°
Maximum altitude 21:17:16 86° 287° (WNW) 666 3.6 -18.3°
Enters shadow 21:20:48 17° 196° (SSW) 1,677 5.5 -18.7°
